Location: Gro�wechsungen
(51.4926°N, 10.6901°E)
Time: 18:13:17
(UTC+00:00)

Cosmos 2082 Rocket - Pass Details

Date: 19 January 2021
Orbit: 832 x 854 km, 71.0° (Epoch: 05 March)

Event Time Altitude Azimuth Distance (km) Brightness Sun altitude
Rises 18:02:16 0° 330° (NNW) 3,437 5.7 -20.9°
Reaches altitude 10° 18:05:12 10° 344° (NNW) 2,498 4.8 -21.3°
Enters shadow 18:09:10 24° 27° (NNE) 1,691 3.5 -22.0°
